Flag for Gambia Weather past 2 weeks in Banjul, Gambia

Now
79 °F

Passing clouds.


Feels Like: 83 °F
Forecast: 82 / 88 °F
Wind: No wind

Location: Banjul / Yundum

Current Time: Aug 22, 2014 at 2:28:33 AM

Latest Report: Aug 22, 2014 at 2:00 AM


Visibility: N/A

Pressure: 29.92 "Hg

Humidity: 94%

Dew point: 77 °F

Location of BanjulLocation

Historic Weather in Banjul — Graph

°F

Banjul temperature yesterday

Maximum temperature yesterday: 88 °F (at 1:00 PM)
Minimum temperature yesterday: 75 °F (at 9:00 PM)
Average temperature yesterday: 80 °F

Past Weeks' High & Low Weather Summary

 TemperatureHumidityPressure
High93 °F (Aug 8, 1:00 PM)100% (Aug 11, 11:00 PM)29.98 "Hg (Aug 11, 11:00 PM)
Low73 °F (Aug 11, 10:00 PM)26% (Aug 21, 9:00 AM)29.77 "Hg (Aug 9, 5:00 PM)
Average80 °F86%29.87 "Hg
* Reported Aug 7 1:00 AM — Aug 22 1:00 AM, Banjul, Weather by CustomWeather, © 2014

Note: Actual official high and low records may vary slightly from our data, if they occured in-between our weather recording intervals... More about our weather records

Advertising

Banjul weather history for previous 24 hours

 ConditionsComfort  
Time TempWeatherWind HumidityBarometerVisibility
1:00 AM
Aug 22
77 °FPassing clouds.No wind94%29.89 "HgN/A
12:00 AM77 °FPassing clouds.No wind94%29.89 "HgN/A
11:00 PM
Aug 21
75 °FPassing clouds.5 mph94%29.89 "HgN/A
10:00 PM75 °FPartly cloudy.10 mph89%29.89 "HgN/A
9:00 PM75 °FThunderstorms. Partly cloudy.3 mph94%29.89 "HgN/A
8:00 PM77 °FThunderstorms. Passing clouds.3 mph94%29.86 "Hg6 mi
7:00 PM79 °FWarm.N/A94%29.86 "HgN/A
6:00 PM82 °FThunderstorms. Broken clouds.3 mph89%29.80 "Hg6 mi
5:00 PM86 °FThunderstorms. Scattered clouds.12 mph75%29.83 "HgN/A
4:00 PM86 °FThunderstorms. Broken clouds.10 mph75%29.83 "HgN/A
1:00 PM88 °FPartly sunny.12 mph70%29.92 "HgN/A
12:00 PM86 °FWarm.10 mph75%29.92 "HgN/A
11:00 AM84 °FPartly sunny.9 mph79%29.92 "HgN/A
10:00 AM86 °FPartly sunny.12 mph75%29.89 "HgN/A
9:00 AM81 °FPartly sunny.12 mph26%29.89 "HgN/A
8:00 AM79 °FScattered clouds.No wind94%29.89 "HgN/A
7:00 AM77 °FBroken clouds.7 mph100%29.89 "HgN/A
6:00 AM77 °FWarm.No wind100%29.89 "HgN/A
5:00 AM79 °FPassing clouds.6 mph89%29.86 "HgN/A
4:00 AM79 °FPassing clouds.5 mph94%29.89 "HgN/A
3:00 AM77 °FPassing clouds.No wind100%29.89 "HgN/A
2:00 AM77 °FPassing clouds.No wind100%29.92 "HgN/A
Weather by CustomWeather, © 2014

See weather overviewHow to use our weather pages